This is the latest recevied weather packets stored in our database for station/object KI4FRU. If no packets are shown the sender has not sent any weather packets the latest 10 day(s).
| Time | Temp. | Humidity | Pressure | Rain* | Wind** | Luminosity | Snow |
|---|---|---|---|---|---|---|---|
| 1777476238 | 18.33° C | 99% | 1052.1 hPa | 0 mm | - | 37 W/m² | - |
| 1777475934 | 18.33° C | 99% | 1052 hPa | 0 mm | - | 43 W/m² | - |
| 1777475630 | 18.33° C | 99% | 1052 hPa | 0 mm | - | 45 W/m² | - |
| 1777475327 | 18.33° C | 99% | 1052.1 hPa | 0 mm | - | 52 W/m² | - |
| 1777475022 | 18.33° C | 99% | 1051.9 hPa | 0 mm | - | 69 W/m² | - |
| 1777474719 | 18.33° C | 99% | 1051.9 hPa | 0 mm | - | 59 W/m² | - |
| 1777474415 | 18.33° C | 99% | 1052.1 hPa | 0 mm | - | 49 W/m² | - |
| 1777474112 | 18.33° C | 99% | 1052 hPa | 0 mm | - | 60 W/m² | - |
| 1777473810 | 17.78° C | 99% | 1052 hPa | 0 mm | - | 76 W/m² | - |
| 1777473506 | 17.78° C | 99% | 1052 hPa | 0 mm | - | 61 W/m² | - |
| 1777473202 | 17.78° C | 99% | 1052.1 hPa | 0 mm | - | 61 W/m² | - |
| 1777472899 | 17.78° C | 99% | 1052 hPa | 0 mm | - | 54 W/m² | - |
| 1777472595 | 17.78° C | 99% | 1051.9 hPa | 0 mm | - | 58 W/m² | - |
| 1777472292 | 17.78° C | 99% | 1051.9 hPa | 0 mm | - | 59 W/m² | - |
| 1777471989 | 17.78° C | 99% | 1052.2 hPa | 0 mm | - | 52 W/m² | - |
| 1777471685 | 17.78° C | 99% | 1052.1 hPa | 0 mm | - | 44 W/m² | - |
| 1777471382 | 17.22° C | 99% | 1052 hPa | 0 mm | - | 48 W/m² | - |
| 1777471078 | 17.22° C | 99% | 1052.2 hPa | 0 mm | - | 50 W/m² | - |
| 1777470774 | 17.22° C | 99% | 1052.1 hPa | 0 mm | - | 43 W/m² | - |
| 1777470465 | 16.67° C | 99% | 1052.2 hPa | 0 mm | - | 35 W/m² | - |
| 1777470162 | 16.67° C | 99% | 1052 hPa | 0 mm | - | 36 W/m² | - |
| 1777469858 | 16.67° C | 99% | 1052.2 hPa | 0 mm | - | 29 W/m² | - |
| 1777469553 | 16.67° C | 99% | 1052 hPa | 0 mm | - | 17 W/m² | - |
| 1777469248 | 16.67° C | 99% | 1052 hPa | 0 mm | - | 22 W/m² | - |
| 1777468943 | 16.11° C | 99% | 1052.1 hPa | 0 mm | - | 30 W/m² | - |
* Rain latest hour (hover to see other rain measurements)
** Current wind speed in m/s (hover to see current wind gust speed)